Flag for Romania Weather past 2 weeks in Timișoara, Romania

Now
36 °F

Drizzle. Mostly cloudy.


Feels Like: 31 °F
Forecast: 32 / 39 °F
Wind: 6 mph from West

Location: Timisoara Airport

Current Time: Jan 26, 2015 at 4:41:00 AM

Latest Report: Jan 26, 2015 at 4:00 AM


Visibility: 5 mi

Pressure: 30.12 "Hg

Humidity: 100%

Dew point: 36 °F

Location of TimișoaraLocation

Historic Weather in Timișoara — Graph

°F

Timișoara temperature yesterday

Maximum temperature yesterday: 41 °F (at 12:00 AM)
Minimum temperature yesterday: 36 °F (at 8:30 AM)
Average temperature yesterday: 37 °F

Past Weeks' High & Low Weather Summary

 TemperatureHumidityPressure
High57 °F (Jan 22, 2:30 PM)100% (Jan 11, 3:00 AM)30.36 "Hg (Jan 11, 3:00 AM)
Low27 °F (Jan 13, 5:30 AM)44% (Jan 17, 3:30 PM)29.74 "Hg (Jan 24, 1:00 AM)
Average41 °F89%30.01 "Hg
* Reported Jan 11 3:00 AM — Jan 26 3:30 AM, Timișoara, Weather by CustomWeather, © 2014

Note: Actual official high and low records may vary slightly from our data, if they occured in-between our weather recording intervals... More about our weather records

Advertising

Timișoara weather history for previous 24 hours

 ConditionsComfort  
Time TempWeatherWind HumidityBarometerVisibility
3:30 AM
Jan 26
36 °FDrizzle. Fog.5 mph100%30.12 "Hg3 mi
3:00 AM36 °FDrizzle. Fog.5 mph100%30.12 "Hg3 mi
2:30 AM36 °FFog.5 mph100%30.09 "Hg3 mi
2:00 AM36 °FFog.5 mph100%30.09 "Hg2 mi
1:30 AM37 °FMostly cloudy.5 mph93%30.09 "Hg4 mi
1:00 AM37 °FDrizzle. Mostly cloudy.6 mph93%30.09 "Hg4 mi
12:30 AM37 °FDrizzle. Mostly cloudy.3 mph93%30.09 "Hg4 mi
12:00 AM37 °FDrizzle. Fog.5 mph100%30.09 "Hg3 mi
11:30 PM
Jan 25
37 °FLight rain. Fog.3 mph100%30.07 "Hg3 mi
11:00 PM37 °FLight rain. Fog.3 mph100%30.07 "Hg2 mi
10:30 PM37 °FLight rain. Fog.5 mph100%30.07 "Hg2 mi
10:00 PM37 °FDrizzle. Fog.5 mph100%30.07 "Hg1 mi
9:30 PM37 °FFog.6 mph100%30.07 "Hg2 mi
9:00 PM37 °FFog.6 mph100%30.07 "Hg2 mi
8:30 PM37 °FDrizzle. Fog.2 mph100%30.04 "Hg3 mi
8:00 PM37 °FDrizzle. Fog.3 mph100%30.04 "Hg3 mi
7:30 PM37 °FDrizzle. Fog.1 mph100%30.04 "Hg2 mi
7:00 PM37 °FLight rain. Mostly cloudy.2 mph100%30.04 "HgN/A
6:30 PM37 °FDrizzle. Low clouds.2 mph100%30.04 "HgN/A
6:00 PM37 °FLow clouds.3 mph100%30.01 "HgN/A
5:30 PM37 °FLow clouds.5 mph100%30.01 "Hg5 mi
5:00 PM37 °FMore clouds than sun.3 mph100%30.01 "HgN/A
4:30 PM37 °FLow clouds.5 mph100%29.98 "HgN/A
4:00 PM37 °FLow clouds.3 mph93%29.98 "HgN/A
3:30 PM37 °FLow clouds.3 mph93%29.98 "HgN/A
3:00 PM37 °FMore clouds than sun.2 mph93%29.98 "HgN/A
2:30 PM37 °FLow clouds.5 mph93%29.98 "HgN/A
2:00 PM37 °FLow clouds.3 mph93%29.95 "HgN/A
1:30 PM37 °FDrizzle. Low clouds.3 mph93%29.98 "HgN/A
1:00 PM37 °FDrizzle. Low clouds.5 mph93%29.98 "HgN/A
12:30 PM37 °FLow clouds.6 mph93%29.98 "HgN/A
12:00 PM37 °FLow clouds.3 mph93%29.98 "Hg6 mi
11:30 AM37 °FDrizzle. Low clouds.2 mph93%29.98 "Hg5 mi
11:00 AM36 °FLow clouds.5 mph100%29.95 "Hg5 mi
10:30 AM36 °FDrizzle. Low clouds.5 mph100%29.95 "Hg4 mi
10:00 AM36 °FDrizzle. Low clouds.6 mph100%29.95 "Hg4 mi
9:30 AM36 °FLow clouds.5 mph100%29.95 "Hg4 mi
9:00 AM36 °FFog.6 mph100%29.92 "Hg3 mi
8:30 AM36 °FFog.6 mph100%29.92 "Hg2 mi
8:00 AM37 °FFog.6 mph93%29.89 "Hg2 mi
7:30 AM37 °FFog.5 mph93%29.89 "Hg2 mi
7:00 AM37 °FFog.6 mph93%29.89 "Hg1 mi
6:30 AM37 °FDrizzle. Fog.6 mph93%29.89 "Hg1 mi
6:00 AM37 °FFog.6 mph93%29.89 "Hg1 mi
5:30 AM37 °FFog.6 mph93%29.89 "Hg1 mi
4:30 AM37 °FDrizzle. Fog.7 mph100%29.86 "Hg2 mi
4:00 AM37 °FDrizzle. Fog.6 mph100%29.86 "Hg1 mi
Weather by CustomWeather, © 2014

See weather overviewHow to use our weather pages